カタログに戻る

STARLINK-11346

運用中通信VLEO
NORAD 61697·PAYLOAD·🇺🇸 United States

打ち上げ Oct 30, 2024 から Vandenberg Space Force Base

Loading…

次のパス (今後24時間)

TLE

最新Source: CelesTrak SupGP

元期: Sep 15, 2026, 03:15 UTC

1 61697C 24195L   26258.13590278  .00014312  00000+0  11787-3 0  2583
2 61697  53.1568 172.1423 0001164  84.6885 189.1036 15.69705409    15

AllMySatでSTARLINK-11346をリアルタイム追跡

Download on the App Store